{"data":{"norad_id":69091,"intl_designator":"2026-104U","name":"CZ-6A R/B","alt_names":[],"object_type":"ROCKET_BODY","status":"UNKNOWN","operator":null,"country":"PRC","launch_date":"2026-05-12","launch_site_code":"TAISC","launch_vehicle":null,"mission":null,"orbit_class":"UNKNOWN","rcs_meters":null,"size_class":null,"mass_kg":null,"dimensions":null,"purposes":[],"wikipedia_slug":null,"has_3d_model":false,"image_url":null,"decayed_at":null,"tle_current":{"epoch":"2026-05-25T04:17:59.817984Z","epoch_age_seconds":59887,"freshness":"FRESH","line1":"1 69091U 26104U   26145.17916456  .00000236  00000+0  44846-4 0  9995","line2":"2 69091  89.0140 344.1782 0094757  63.8008 297.2908 14.57450181  1863","mean_motion":14.57450181,"eccentricity":0.0094757,"inclination_deg":89.014,"raan_deg":344.1782,"arg_perigee_deg":63.8008,"mean_anomaly_deg":297.2908,"bstar":4.4846e-5,"rev_number":186,"period_min":98.802691081487,"perigee_km":634.33537344731,"apogee_km":768.50287336442,"semimajor_km":7079.5561234059,"source":"CELESTRAK","updated_at":"2026-05-25T13:38:09.053300Z"}}}